sat.trackr.live / text

‹ back to catalog

KUIPER-00205

NORAD 67774 · 2026-030L

PAYLOAD ACTIVE UNKNOWN

§ Identity

Operator
Country
US
Launch date
2026-02-12
Launch site
FRGUI
Launch vehicle
Mass (kg)
RCS (m²)

External: N2YO · Heavens-Above · Gunter

§ Orbital elements

Epoch: 2026-05-25T04:00:03.998880Z

Period
94.15 min
Inclination
51.8828°
Eccentricity
0.0002919
Mean motion
15.29442010 rev/d
Perigee alt
475.5 km
Apogee alt
479.5 km
Semi-major
6,855.6 km
B*
1.6048e-3
RAAN
209.3658°
Arg perigee
304.7084°
Mean anomaly
236.7654°
Rev number
543

§ Raw data

KUIPER-002051 67774U 26030L   26145.16671295  .00046408  00000+0  16048-2 0  99992 67774  51.8828 209.3658 0002919 304.7084 236.7654 15.29442010  5438

JSON: /api/v1/satellites/67774 · /tle

For live sub-satellite position, see the globe view (requires WebGL).

§ Visibility from observer

Set your observer location to see the next 7 days of passes ≥ 10°. The values pass through the URL so the page stays shareable.

No JS? Fill the form by hand. The geolocation button needs JavaScript.